User: anonymous
Location: Mactaquac Provincial Park
(45.9573°N, 66.8897°W)
Time: 12:27:59
(UTC-03:00)
Language:

Cosmos 1867 - Orbit

View from above orbital plane
View from above orbital plane
View from above satellite
View from above satellite

Ground track
Ground track

The orbit data is extracted from the following two-line orbital elements,

1 18187U 87060A   14258.68627894 -.00000052  00000-0  18342-4 0  1538
2 18187 065.0115 162.7012 0014357 263.6531 096.2918 14.31026340420117
Epoch (UTC): 15 September 2014 16:28:14
Eccentricity: 0.0014357
inclination: 65.0115°
perigee height: 778 km
apogee height: 798 km
right ascension of ascending node: 162.7012°
argument of perigee: 263.6531°
revolutions per day: 14.31026340
mean anomaly at epoch: 96.2918°
orbit number at epoch: 42011

The dashed part of the orbit path shows where the satellite is in the earth's shadow,  

DLR